Zurück zum Katalog

YAOGAN 11 DEB

AktivMilitärPO
NORAD 38174·DEBRIS·🇨🇳 China

Gestartet Sep 22, 2010 von Jiuquan Satellite Launch Center

Loading…

Nächste Überflüge (nächste 24 Stunden)

TLE

AktuellSource: Space-Track

Epoche: Sep 14, 2026, 10:04 UTC

1 38174U 10047D   26257.41984038  .00002059  00000-0  53461-3 0  9992
2 38174  97.8897 236.4135 0178697 319.8926 194.1666 14.41617826827946

Verfolge YAOGAN 11 DEB in Echtzeit mit AllMySat

Download on the App Store